QPF
0.02 0.01 0.01 0.01 0.01 0.02 0.02 0.03 0.03 0.03 0.04 0.05 0.07 0.06 0.06 0.06 0.06 0.07 0.06 0.06 0.07 0.09 0.11 0.13 0.14 0.15 0.15 0.18 0.23 0.26 0.24 0.21 0.22 0.22 0.21 0.19 0.18 0.18 0.18 0.18 0.18 0.16 0.13
0.03 0.02 0.01 0.01 0.01 0.02 0.02 0.02 0.03 0.03 0.04 0.05 0.09 0.09 0.07 0.06 0.07 0.07 0.07 0.06 0.06 0.07 0.08 0.11 0.11 0.11 0.13 0.15 0.18 0.22 0.24 0.22 0.21 0.20 0.21 0.19 0.17 0.15 0.15 0.18 0.18 0.16 0.14
0.02 0.02 0.01 0.01 0.01 0.01 0.02 0.02 0.03 0.03 0.04 0.05 0.09 0.11 0.08 0.05 0.05 0.06 0.06 0.07 0.07 0.07 0.08 0.09 0.09 0.10 0.12 0.12 0.13 0.17 0.22 0.21 0.24 0.25 0.24 0.22 0.21 0.18 0.18 0.18 0.17 0.17 0.16
0.01 0.01 0.00 0.00 0.00 0.01 0.01 0.01 0.03 0.03 0.04 0.04 0.05 0.04 0.04 0.04 0.05 0.06 0.05 0.05 0.05 0.05 0.06 0.06 0.07 0.07 0.08 0.08 0.08 0.12 0.17 0.20 0.22 0.25 0.23 0.22 0.22 0.22 0.21 0.21 0.20 0.21 0.21
0.01 0.00 0.00 0.00 0.00 0.00 0.01 0.01 0.02 0.03 0.04 0.04 0.05 0.04 0.04 0.05 0.06 0.07 0.06 0.05 0.05 0.05 0.05 0.05 0.05 0.05 0.06 0.07 0.07 0.08 0.11 0.13 0.16 0.19 0.20 0.22 0.23 0.22 0.20 0.19 0.20 0.19 0.18
0.01 0.00 0.00 0.01 0.00 0.00 0.01 0.02 0.02 0.02 0.03 0.04 0.05 0.04 0.04 0.05 0.06 0.05 0.05 0.05 0.05 0.05 0.05 0.06 0.07 0.06 0.06 0.05 0.06 0.07 0.08 0.10 0.12 0.14 0.17 0.17 0.17 0.16 0.18 0.18 0.17 0.17 0.18
0.01 0.01 0.01 0.00 0.00 0.00 0.01 0.02 0.02 0.02 0.02 0.03 0.04 0.04 0.04 0.04 0.04 0.03 0.02 0.03 0.03 0.03 0.02 0.04 0.04 0.05 0.06 0.05 0.05 0.05 0.07 0.08 0.09 0.10 0.11 0.12 0.11 0.10 0.13 0.17 0.18 0.18 0.18
0.01 0.02 0.02 0.01 0.00 0.01 0.01 0.02 0.03 0.04 0.03 0.03 0.03 0.03 0.03 0.03 0.02 0.02 0.02 0.02 0.02 0.02 0.02 0.02 0.02 0.03 0.04 0.05 0.05 0.04 0.04 0.06 0.07 0.09 0.11 0.13 0.13 0.14 0.14 0.16 0.16 0.18 0.20
0.01 0.01 0.02 0.01 0.00 0.00 0.01 0.02 0.03 0.04 0.03 0.02 0.02 0.02 0.01 0.01 0.01 0.02 0.02 0.01 0.01 0.01 0.01 0.01 0.01 0.02 0.02 0.04 0.05 0.05 0.05 0.06 0.07 0.08 0.09 0.12 0.15 0.18 0.18 0.20 0.19 0.19 0.20
0.00 0.00 0.00 0.00 0.00 0.00 0.01 0.02 0.03 0.03 0.03 0.02 0.02 0.02 0.01 0.01 0.01 0.02 0.03 0.02 0.02 0.01 0.01 0.01 0.01 0.01 0.02 0.03 0.05 0.05 0.06 0.07 0.07 0.08 0.09 0.10 0.11 0.15 0.19 0.23 0.24 0.23 0.22
0.00 0.00 0.00 0.00 0.00 0.00 0.01 0.01 0.01 0.02 0.02 0.02 0.03 0.02 0.01 0.01 0.01 0.01 0.02 0.03 0.03 0.02 0.02 0.02 0.02 0.01 0.02 0.02 0.03 0.04 0.05 0.06 0.07 0.06 0.07 0.09 0.11 0.12 0.13 0.15 0.17 0.22 0.24
0.00 0.00 0.00 0.00 0.01 0.01 0.01 0.00 0.01 0.01 0.02 0.02 0.03 0.04 0.02 0.01 0.02 0.02 0.02 0.02 0.02 0.02 0.02 0.02 0.01 0.01 0.01 0.02 0.03 0.03 0.03 0.04 0.05 0.05 0.06 0.06 0.08 0.10 0.11 0.12 0.14 0.16 0.18
0.00 0.00 0.00 0.01 0.01 0.01 0.01 0.00 0.00 0.01 0.01 0.02 0.02 0.02 0.03 0.02 0.03 0.03 0.04 0.04 0.02 0.02 0.02 0.02 0.02 0.02 0.03 0.03 0.03 0.03 0.03 0.03 0.04 0.05 0.06 0.06 0.06 0.07 0.09 0.10 0.11 0.13 0.13
0.00 0.00 0.00 0.01 0.01 0.01 0.01 0.00 0.00 0.01 0.01 0.01 0.02 0.02 0.03 0.04 0.04 0.04 0.04 0.04 0.03 0.03 0.02 0.02 0.02 0.03 0.03 0.05 0.06 0.06 0.04 0.03 0.04 0.05 0.05 0.06 0.06 0.06 0.07 0.07 0.09 0.10 0.11
0.01 0.01 0.01 0.01 0.01 0.01 0.01 0.01 0.01 0.01 0.01 0.02 0.02 0.03 0.04 0.04 0.04 0.04 0.04 0.03 0.03 0.03 0.02 0.02 0.02 0.03 0.04 0.05 0.06 0.08 0.06 0.05 0.06 0.07 0.06 0.06 0.06 0.07 0.07 0.07 0.09 0.10 0.10
0.02 0.01 0.01 0.01 0.02 0.01 0.02 0.02 0.02 0.02 0.02 0.02 0.03 0.03 0.04 0.04 0.04 0.05 0.04 0.03 0.03 0.03 0.02 0.02 0.02 0.02 0.02 0.04 0.05 0.06 0.08 0.09 0.09 0.09 0.08 0.07 0.07 0.07 0.07 0.07 0.07 0.08 0.08
0.02 0.02 0.02 0.02 0.02 0.02 0.02 0.01 0.01 0.02 0.02 0.03 0.04 0.04 0.04 0.03 0.03 0.03 0.04 0.04 0.04 0.04 0.04 0.03 0.02 0.02 0.01 0.02 0.03 0.05 0.07 0.09 0.11 0.10 0.09 0.08 0.07 0.06 0.06 0.07 0.06 0.06 0.05
0.01 0.02 0.03 0.03 0.02 0.02 0.01 0.01 0.01 0.02 0.03 0.04 0.04 0.03 0.03 0.04 0.04 0.04 0.06 0.06 0.07 0.06 0.05 0.04 0.03 0.03 0.01 0.02 0.03 0.05 0.08 0.10 0.11 0.08 0.07 0.07 0.06 0.05 0.05 0.06 0.07 0.06 0.04
0.01 0.02 0.02 0.02 0.02 0.02 0.02 0.02 0.02 0.03 0.04 0.04 0.04 0.02 0.03 0.04 0.05 0.05 0.06 0.08 0.08 0.08 0.06 0.05 0.06 0.06 0.02 0.02 0.05 0.07 0.09 0.11 0.10 0.08 0.05 0.04 0.04 0.04 0.04 0.06 0.07 0.06 0.04
0.01 0.01 0.01 0.01 0.02 0.03 0.03 0.03 0.04 0.05 0.04 0.03 0.03 0.03 0.04 0.05 0.05 0.05 0.07 0.07 0.07 0.09 0.08 0.05 0.05 0.03 0.03 0.04 0.07 0.11 0.10 0.11 0.10 0.08 0.05 0.04 0.04 0.03 0.03 0.06 0.07 0.06 0.04
0.01 0.01 0.01 0.03 0.04 0.04 0.04 0.05 0.06 0.06 0.04 0.02 0.03 0.03 0.04 0.05 0.04 0.04 0.06 0.06 0.06 0.08 0.09 0.05 0.03 0.02 0.03 0.04 0.07 0.09 0.09 0.09 0.08 0.06 0.05 0.03 0.04 0.03 0.02 0.02 0.03 0.01 0.02
0.01 0.02 0.03 0.04 0.05 0.05 0.06 0.05 0.05 0.05 0.03 0.03 0.03 0.03 0.03 0.03 0.03 0.04 0.06 0.07 0.08 0.07 0.07 0.05 0.03 0.03 0.03 0.03 0.03 0.04 0.05 0.06 0.07 0.06 0.03 0.02 0.02 0.01 0.01 0.00 0.00 0.00 0.01
0.02 0.03 0.03 0.03 0.04 0.05 0.06 0.05 0.04 0.04 0.03 0.04 0.04 0.03 0.03 0.02 0.02 0.04 0.05 0.07 0.11 0.11 0.07 0.06 0.05 0.03 0.02 0.02 0.03 0.03 0.03 0.03 0.04 0.03 0.02 0.01 0.01 0.00 0.01 0.00 0.00 0.01 0.02
0.03 0.03 0.02 0.03 0.03 0.04 0.05 0.04 0.04 0.04 0.04 0.04 0.04 0.04 0.04 0.03 0.03 0.03 0.04 0.05 0.07 0.08 0.08 0.06 0.06 0.04 0.03 0.02 0.02 0.02 0.02 0.02 0.01 0.01 0.01 0.00 0.00 0.00 0.01 0.01 0.01 0.02 0.02
0.03 0.03 0.04 0.04 0.04 0.03 0.03 0.04 0.04 0.04 0.05 0.05 0.04 0.04 0.04 0.04 0.04 0.03 0.03 0.03 0.02 0.02 0.04 0.05 0.06 0.05 0.02 0.01 0.01 0.01 0.01 0.01 0.01 0.01 0.01 0.01 0.01 0.01 0.02 0.02 0.02 0.02 0.01
0.03 0.03 0.04 0.03 0.03 0.03 0.03 0.03 0.03 0.03 0.04 0.04 0.03 0.02 0.02 0.02 0.02 0.02 0.02 0.01 0.01 0.01 0.01 0.02 0.03 0.03 0.01 0.01 0.00 0.00 0.00 0.00 0.00 0.01 0.02 0.02 0.01 0.01 0.01 0.01 0.01 0.01 0.01
MSLP
1014.77 1015.04 1015.23 1015.33 1015.36 1015.33 1015.27 1015.17 1015.03 1014.86 1014.63 1014.36 1014.05 1013.71 1013.38 1013.08 1012.87 1012.76 1012.78 1012.93 1013.20 1013.56 1013.97 1014.39 1014.80 1015.16 1015.47 1015.74 1015.97 1016.20 1016.43 1016.69 1016.96 1017.24 1017.53 1017.81 1018.06 1018.29 1018.49 1018.68 1018.87 1019.09 1019.35
1014.57 1014.86 1015.08 1015.22 1015.29 1015.31 1015.29 1015.23 1015.13 1015.00 1014.82 1014.58 1014.29 1013.96 1013.62 1013.30 1013.03 1012.87 1012.83 1012.91 1013.13 1013.43 1013.80 1014.20 1014.58 1014.92 1015.22 1015.48 1015.72 1015.95 1016.19 1016.47 1016.79 1017.12 1017.48 1017.83 1018.15 1018.45 1018.71 1018.95 1019.18 1019.42 1019.67
1014.29 1014.61 1014.88 1015.07 1015.21 1015.28 1015.32 1015.32 1015.28 1015.21 1015.08 1014.89 1014.63 1014.32 1013.97 1013.63 1013.33 1013.11 1013.00 1013.03 1013.17 1013.42 1013.74 1014.09 1014.43 1014.74 1015.01 1015.23 1015.44 1015.64 1015.87 1016.14 1016.46 1016.82 1017.22 1017.63 1018.04 1018.43 1018.78 1019.11 1019.42 1019.72 1020.03
1014.03 1014.41 1014.74 1015.00 1015.21 1015.36 1015.46 1015.52 1015.55 1015.52 1015.44 1015.30 1015.07 1014.78 1014.44 1014.09 1013.75 1013.49 1013.34 1013.30 1013.38 1013.57 1013.83 1014.13 1014.42 1014.67 1014.89 1015.06 1015.20 1015.34 1015.51 1015.74 1016.03 1016.39 1016.80 1017.26 1017.73 1018.21 1018.68 1019.13 1019.56 1019.97 1020.37
1013.85 1014.30 1014.71 1015.07 1015.36 1015.58 1015.75 1015.87 1015.93 1015.95 1015.91 1015.79 1015.59 1015.32 1014.99 1014.64 1014.29 1014.01 1013.81 1013.73 1013.76 1013.89 1014.10 1014.33 1014.56 1014.76 1014.90 1014.99 1015.06 1015.11 1015.20 1015.35 1015.57 1015.89 1016.29 1016.77 1017.30 1017.87 1018.45 1019.03 1019.60 1020.15 1020.67
1013.75 1014.30 1014.83 1015.28 1015.66 1015.96 1016.18 1016.33 1016.42 1016.46 1016.43 1016.32 1016.15 1015.89 1015.58 1015.24 1014.90 1014.61 1014.39 1014.28 1014.27 1014.36 1014.51 1014.69 1014.86 1014.99 1015.05 1015.07 1015.04 1015.00 1014.99 1015.04 1015.18 1015.43 1015.79 1016.26 1016.82 1017.46 1018.14 1018.84 1019.55 1020.25 1020.90
1013.72 1014.40 1015.04 1015.61 1016.08 1016.43 1016.69 1016.86 1016.95 1016.99 1016.95 1016.85 1016.68 1016.45 1016.16 1015.84 1015.52 1015.24 1015.02 1014.90 1014.87 1014.92 1015.02 1015.15 1015.27 1015.33 1015.33 1015.27 1015.16 1015.03 1014.92 1014.87 1014.92 1015.09 1015.39 1015.83 1016.40 1017.07 1017.83 1018.63 1019.46 1020.27 1021.05
1013.76 1014.57 1015.34 1016.01 1016.55 1016.95 1017.23 1017.40 1017.48 1017.49 1017.43 1017.33 1017.16 1016.94 1016.68 1016.39 1016.11 1015.85 1015.65 1015.52 1015.47 1015.50 1015.57 1015.66 1015.73 1015.75 1015.70 1015.58 1015.40 1015.20 1015.01 1014.88 1014.84 1014.93 1015.17 1015.57 1016.11 1016.80 1017.59 1018.45 1019.36 1020.26 1021.13
1013.85 1014.79 1015.67 1016.43 1017.03 1017.46 1017.75 1017.90 1017.95 1017.93 1017.85 1017.73 1017.57 1017.37 1017.14 1016.89 1016.64 1016.41 1016.23 1016.11 1016.06 1016.07 1016.11 1016.17 1016.21 1016.19 1016.11 1015.96 1015.75 1015.51 1015.27 1015.08 1014.98 1015.01 1015.18 1015.53 1016.03 1016.69 1017.48 1018.36 1019.29 1020.23 1021.13
1014.04 1015.08 1016.04 1016.85 1017.49 1017.93 1018.20 1018.33 1018.35 1018.30 1018.20 1018.07 1017.92 1017.74 1017.55 1017.34 1017.13 1016.93 1016.78 1016.67 1016.61 1016.60 1016.63 1016.67 1016.68 1016.66 1016.57 1016.41 1016.20 1015.95 1015.69 1015.47 1015.34 1015.31 1015.44 1015.72 1016.17 1016.78 1017.53 1018.38 1019.28 1020.20 1021.09
1014.35 1015.45 1016.45 1017.28 1017.92 1018.35 1018.60 1018.70 1018.69 1018.62 1018.52 1018.39 1018.25 1018.11 1017.95 1017.78 1017.61 1017.45 1017.31 1017.21 1017.15 1017.13 1017.14 1017.15 1017.16 1017.13 1017.05 1016.91 1016.72 1016.49 1016.25 1016.03 1015.88 1015.83 1015.91 1016.14 1016.52 1017.06 1017.74 1018.51 1019.35 1020.20 1021.03
1014.82 1015.93 1016.92 1017.73 1018.33 1018.73 1018.95 1019.03 1019.01 1018.93 1018.83 1018.73 1018.62 1018.51 1018.40 1018.27 1018.14 1018.00 1017.88 1017.78 1017.71 1017.67 1017.66 1017.67 1017.67 1017.64 1017.58 1017.47 1017.31 1017.11 1016.91 1016.71 1016.56 1016.50 1016.54 1016.72 1017.03 1017.49 1018.07 1018.75 1019.48 1020.24 1020.98
1015.44 1016.52 1017.45 1018.20 1018.75 1019.10 1019.28 1019.34 1019.32 1019.27 1019.20 1019.13 1019.06 1019.00 1018.93 1018.84 1018.74 1018.63 1018.51 1018.41 1018.33 1018.28 1018.25 1018.23 1018.23 1018.21 1018.16 1018.08 1017.95 1017.80 1017.63 1017.46 1017.33 1017.26 1017.28 1017.40 1017.65 1018.01 1018.49 1019.06 1019.68 1020.33 1020.96
1016.20 1017.19 1018.03 1018.68 1019.15 1019.45 1019.61 1019.66 1019.66 1019.64 1019.61 1019.60 1019.59 1019.57 1019.55 1019.50 1019.43 1019.33 1019.22 1019.11 1019.02 1018.94 1018.89 1018.86 1018.84 1018.82 1018.78 1018.72 1018.63 1018.51 1018.37 1018.23 1018.12 1018.05 1018.05 1018.13 1018.31 1018.59 1018.97 1019.43 1019.94 1020.47 1021.00
1017.03 1017.90 1018.62 1019.17 1019.55 1019.79 1019.93 1020.00 1020.03 1020.05 1020.09 1020.13 1020.17 1020.21 1020.23 1020.21 1020.16 1020.07 1019.97 1019.86 1019.75 1019.65 1019.58 1019.53 1019.50 1019.47 1019.43 1019.38 1019.30 1019.21 1019.10 1018.99 1018.89 1018.82 1018.81 1018.86 1018.99 1019.20 1019.49 1019.84 1020.25 1020.69 1021.12
1017.85 1018.59 1019.18 1019.62 1019.92 1020.12 1020.25 1020.33 1020.41 1020.49 1020.58 1020.68 1020.78 1020.86 1020.91 1020.91 1020.88 1020.80 1020.70 1020.58 1020.46 1020.36 1020.27 1020.20 1020.15 1020.10 1020.06 1020.01 1019.94 1019.87 1019.78 1019.69 1019.61 1019.55 1019.53 1019.57 1019.66 1019.81 1020.03 1020.31 1020.63 1020.98 1021.34
1018.57 1019.19 1019.66 1020.00 1020.24 1020.41 1020.55 1020.66 1020.78 1020.92 1021.06 1021.21 1021.35 1021.46 1021.52 1021.54 1021.51 1021.44 1021.34 1021.23 1021.11 1020.99 1020.89 1020.81 1020.75 1020.69 1020.64 1020.59 1020.52 1020.46 1020.39 1020.32 1020.27 1020.23 1020.22 1020.25 1020.32 1020.44 1020.61 1020.83 1021.08 1021.36 1021.66
1019.14 1019.65 1020.03 1020.30 1020.50 1020.66 1020.81 1020.96 1021.12 1021.31 1021.49 1021.67 1021.82 1021.94 1022.01 1022.03 1022.00 1021.93 1021.83 1021.72 1021.61 1021.50 1021.41 1021.33 1021.26 1021.20 1021.14 1021.09 1021.03 1020.98 1020.93 1020.90 1020.87 1020.86 1020.88 1020.92 1020.99 1021.09 1021.23 1021.39 1021.59 1021.81 1022.05
1019.54 1019.96 1020.27 1020.51 1020.70 1020.87 1021.04 1021.22 1021.43 1021.63 1021.84 1022.03 1022.17 1022.28 1022.33 1022.34 1022.30 1022.23 1022.15 1022.05 1021.96 1021.87 1021.79 1021.73 1021.67 1021.61 1021.56 1021.52 1021.48 1021.44 1021.43 1021.42 1021.43 1021.46 1021.51 1021.57 1021.65 1021.75 1021.86 1021.98 1022.13 1022.29 1022.48
1019.77 1020.14 1020.42 1020.65 1020.84 1021.03 1021.23 1021.45 1021.67 1021.90 1022.10 1022.27 1022.39 1022.46 1022.49 1022.47 1022.42 1022.36 1022.29 1022.22 1022.16 1022.11 1022.07 1022.03 1022.00 1021.97 1021.94 1021.91 1021.88 1021.88 1021.89 1021.91 1021.97 1022.03 1022.11 1022.20 1022.29 1022.38 1022.47 1022.56 1022.66 1022.77 1022.89
1019.89 1020.23 1020.50 1020.73 1020.95 1021.17 1021.40 1021.64 1021.88 1022.09 1022.27 1022.40 1022.49 1022.52 1022.50 1022.46 1022.40 1022.35 1022.31 1022.28 1022.27 1022.27 1022.29 1022.30 1022.30 1022.30 1022.30 1022.29 1022.29 1022.30 1022.34 1022.39 1022.47 1022.57 1022.68 1022.78 1022.88 1022.96 1023.03 1023.08 1023.13 1023.18 1023.24
1019.93 1020.27 1020.54 1020.80 1021.04 1021.29 1021.55 1021.80 1022.03 1022.23 1022.37 1022.46 1022.49 1022.47 1022.42 1022.36 1022.30 1022.26 1022.26 1022.29 1022.34 1022.42 1022.49 1022.57 1022.62 1022.66 1022.68 1022.70 1022.71 1022.74 1022.78 1022.85 1022.94 1023.05 1023.17 1023.27 1023.36 1023.43 1023.46 1023.47 1023.47 1023.46 1023.46
1019.96 1020.29 1020.58 1020.85 1021.13 1021.41 1021.68 1021.94 1022.15 1022.32 1022.42 1022.45 1022.43 1022.37 1022.29 1022.21 1022.17 1022.16 1022.21 1022.30 1022.43 1022.59 1022.74 1022.88 1022.99 1023.07 1023.11 1023.14 1023.16 1023.18 1023.21 1023.27 1023.35 1023.44 1023.54 1023.63 1023.69 1023.73 1023.73 1023.70 1023.65 1023.59 1023.54
1019.99 1020.32 1020.62 1020.91 1021.21 1021.51 1021.79 1022.04 1022.23 1022.36 1022.42 1022.41 1022.35 1022.25 1022.15 1022.07 1022.04 1022.08 1022.18 1022.35 1022.56 1022.80 1023.03 1023.24 1023.40 1023.51 1023.58 1023.60 1023.60 1023.60 1023.60 1023.61 1023.65 1023.70 1023.76 1023.81 1023.84 1023.84 1023.81 1023.74 1023.66 1023.56 1023.48
1020.04 1020.36 1020.67 1020.97 1021.28 1021.59 1021.87 1022.10 1022.27 1022.37 1022.39 1022.34 1022.24 1022.12 1022.01 1021.94 1021.94 1022.03 1022.19 1022.43 1022.73 1023.04 1023.34 1023.61 1023.82 1023.95 1024.02 1024.03 1024.00 1023.95 1023.89 1023.85 1023.82 1023.81 1023.80 1023.80 1023.79 1023.76 1023.70 1023.61 1023.51 1023.40 1023.30
1020.09 1020.41 1020.71 1021.02 1021.33 1021.63 1021.91 1022.13 1022.27 1022.35 1022.33 1022.25 1022.13 1021.99 1021.88 1021.83 1021.86 1021.98 1022.20 1022.51 1022.87 1023.24 1023.61 1023.92 1024.16 1024.31 1024.38 1024.37 1024.29 1024.18 1024.06 1023.93 1023.83 1023.74 1023.68 1023.62 1023.57 1023.51 1023.43 1023.34 1023.24 1023.14 1023.05
Thickness
5718 5716 5714 5712 5710 5709 5707 5705 5704 5703 5702 5701 5699 5697 5695 5694 5692 5691 5691 5690 5688 5687 5688 5688 5689 5689 5689 5689 5690 5689 5690 5689 5688 5685 5684 5685 5688 5689 5689 5690 5690 5690 5690
5712 5709 5708 5705 5701 5698 5697 5696 5694 5693 5693 5692 5691 5689 5688 5686 5684 5683 5682 5681 5680 5679 5680 5680 5681 5681 5681 5681 5682 5682 5682 5682 5683 5680 5677 5675 5676 5679 5681 5682 5683 5683 5683
5707 5702 5699 5696 5693 5689 5687 5685 5683 5683 5683 5683 5683 5681 5680 5678 5676 5675 5673 5672 5671 5671 5671 5671 5671 5672 5673 5673 5674 5675 5674 5673 5675 5676 5673 5670 5669 5668 5671 5673 5674 5674 5675
5703 5697 5693 5688 5684 5681 5679 5676 5674 5673 5673 5673 5671 5670 5668 5666 5665 5665 5664 5664 5663 5662 5662 5662 5663 5664 5665 5666 5666 5668 5668 5668 5667 5669 5670 5670 5669 5663 5659 5661 5663 5665 5665
5697 5690 5685 5681 5677 5674 5670 5667 5665 5663 5662 5662 5661 5659 5658 5657 5656 5656 5655 5655 5654 5654 5653 5654 5654 5655 5656 5657 5659 5660 5660 5661 5662 5662 5663 5663 5663 5662 5657 5652 5652 5652 5653
5692 5685 5679 5674 5670 5667 5662 5658 5656 5653 5652 5651 5650 5649 5648 5647 5646 5645 5645 5645 5645 5645 5644 5645 5645 5646 5647 5649 5650 5652 5653 5654 5655 5656 5657 5657 5656 5655 5653 5649 5645 5642 5641
5685 5678 5672 5667 5662 5658 5654 5650 5646 5643 5642 5641 5640 5640 5639 5638 5636 5635 5635 5635 5635 5635 5634 5635 5636 5637 5638 5640 5642 5643 5644 5646 5646 5648 5649 5650 5651 5651 5650 5645 5640 5635 5632
5680 5673 5667 5661 5655 5649 5645 5641 5637 5634 5633 5631 5630 5630 5629 5628 5627 5626 5625 5625 5624 5625 5625 5626 5627 5628 5630 5632 5633 5635 5636 5637 5638 5640 5641 5642 5644 5644 5644 5641 5636 5629 5624
5675 5668 5661 5654 5648 5642 5636 5633 5629 5626 5624 5623 5621 5620 5619 5618 5617 5616 5616 5615 5615 5616 5616 5617 5618 5619 5621 5623 5625 5625 5626 5628 5630 5631 5633 5633 5635 5636 5637 5636 5634 5629 5621
5670 5662 5654 5647 5641 5635 5629 5625 5621 5618 5615 5614 5612 5611 5609 5608 5607 5606 5605 5605 5605 5606 5607 5608 5609 5610 5611 5613 5615 5616 5617 5619 5620 5622 5622 5623 5625 5627 5628 5628 5626 5625 5621
5664 5655 5648 5641 5634 5628 5622 5617 5613 5610 5607 5604 5602 5600 5599 5598 5597 5596 5595 5595 5595 5596 5596 5598 5599 5600 5601 5603 5604 5606 5607 5608 5610 5611 5613 5614 5615 5616 5617 5617 5616 5615 5612
5658 5650 5642 5634 5627 5621 5615 5609 5605 5601 5598 5595 5592 5590 5588 5587 5587 5586 5585 5585 5585 5585 5586 5587 5588 5589 5590 5592 5593 5595 5596 5597 5598 5600 5601 5603 5605 5605 5606 5606 5606 5604 5602
5649 5642 5634 5626 5619 5613 5606 5601 5597 5593 5590 5587 5583 5581 5579 5577 5576 5575 5575 5575 5575 5575 5575 5576 5577 5578 5579 5580 5581 5583 5584 5585 5587 5588 5589 5591 5593 5594 5595 5595 5594 5593 5591
5640 5632 5624 5617 5610 5604 5598 5592 5587 5584 5581 5577 5574 5571 5569 5567 5566 5565 5565 5565 5565 5565 5566 5566 5567 5568 5568 5569 5570 5572 5573 5574 5576 5577 5579 5580 5581 5582 5583 5583 5582 5582 5579
5631 5623 5616 5609 5602 5596 5589 5584 5579 5574 5571 5567 5564 5561 5560 5558 5557 5556 5556 5556 5557 5557 5557 5557 5558 5558 5558 5557 5558 5561 5563 5563 5565 5567 5568 5569 5570 5571 5572 5573 5571 5571 5569
5623 5616 5608 5601 5594 5588 5581 5576 5570 5566 5562 5558 5555 5553 5552 5550 5549 5548 5548 5548 5548 5548 5548 5548 5548 5547 5546 5546 5548 5550 5551 5553 5555 5556 5557 5559 5559 5560 5561 5561 5561 5561 5559
5617 5608 5600 5593 5586 5580 5573 5567 5562 5558 5554 5550 5548 5546 5545 5543 5542 5542 5541 5540 5539 5539 5539 5539 5539 5537 5536 5537 5539 5540 5543 5544 5546 5547 5549 5551 5549 5550 5551 5551 5551 5550 5549
5610 5600 5593 5585 5578 5572 5565 5560 5555 5551 5547 5543 5541 5539 5538 5536 5535 5534 5533 5532 5532 5532 5531 5531 5531 5530 5528 5529 5530 5533 5535 5536 5538 5538 5539 5540 5539 5540 5542 5544 5542 5541 5540
5601 5593 5585 5578 5570 5564 5559 5553 5548 5544 5540 5537 5535 5533 5531 5530 5528 5528 5527 5526 5525 5525 5525 5524 5524 5523 5521 5522 5524 5525 5527 5528 5529 5530 5531 5532 5531 5531 5534 5536 5535 5534 5532
5594 5585 5578 5571 5564 5558 5553 5547 5542 5538 5534 5531 5529 5527 5525 5524 5523 5522 5522 5521 5520 5520 5520 5519 5518 5517 5516 5516 5518 5520 5522 5522 5522 5522 5522 5522 5524 5525 5526 5528 5529 5527 5526
5587 5580 5573 5565 5558 5553 5548 5542 5537 5533 5530 5528 5525 5522 5521 5520 5519 5518 5518 5517 5517 5516 5515 5514 5513 5512 5511 5512 5513 5514 5516 5517 5517 5518 5517 5516 5517 5519 5521 5522 5522 5521 5521
5581 5575 5567 5560 5554 5549 5543 5538 5533 5530 5527 5524 5521 5519 5517 5517 5516 5515 5514 5514 5514 5513 5512 5511 5511 5510 5508 5508 5508 5510 5511 5511 5512 5512 5512 5511 5513 5514 5516 5518 5518 5519 5519
5577 5570 5563 5556 5551 5545 5540 5535 5531 5528 5524 5521 5518 5516 5514 5514 5513 5513 5512 5512 5512 5511 5511 5511 5510 5508 5507 5505 5505 5506 5506 5507 5507 5507 5507 5508 5510 5511 5513 5514 5516 5517 5518
5572 5566 5560 5554 5548 5543 5538 5534 5529 5526 5522 5519 5516 5515 5513 5512 5511 5511 5511 5511 5510 5510 5511 5510 5509 5507 5506 5503 5502 5503 5504 5503 5505 5506 5506 5508 5509 5510 5511 5513 5514 5515 5516
5570 5564 5558 5552 5546 5542 5537 5533 5530 5526 5522 5519 5517 5515 5514 5512 5510 5509 5506 5507 5504 5504 5505 5505 5506 5505 5502 5498 5498 5499 5501 5501 5501 5503 5507 5509 5511 5512 5514 5515 5516 5517 5516
5568 5562 5557 5552 5547 5542 5538 5534 5530 5526 5523 5520 5519 5518 5517 5515 5514 5511 5507 5503 5503 5502 5502 5502 5502 5500 5500 5499 5500 5500 5501 5501 5502 5504 5509 5512 5514 5515 5516 5516 5517 5518 5517